User: anonymous   Login
Location: Ecklingerode
(51.5036°N, 10.3122°E)
Time: 06:26:51
(UTC+00:00)
Language:

SeaSat 1 - Orbit

View from above orbital plane
View from above orbital plane
View from above satellite
View from above satellite

Ground track
Ground track

The orbit data is extracted from the following two-line orbital elements,

1 10967U 78064A   21015.61424376 -.00000044  00000-0  27307-4 0  9992
2 10967 107.9987 154.3106 0001212 276.5346  83.5661 14.43855592235213
Epoch (UTC): 15 January 2021 14:44:30
Eccentricity: 0.0001212
inclination: 107.9987°
perigee height: 745 km
apogee height: 746 km
right ascension of ascending node: 154.3106°
argument of perigee: 276.5346°
revolutions per day: 14.43855592
mean anomaly at epoch: 83.5661°
orbit number at epoch: 23521

The dashed part of the orbit path shows where the satellite is in the earth's shadow,  

DLR